Tracking 19149 objects as of 21-Apr-2018
HD Live streaming from Space Station
objects crossing your sky now

COSMOS 1235

Track COSMOS 1235 now!
10-day predictions
COSMOS 1235 is classified as:


NORAD ID: 12114
Int'l Code: 1980-102H
Perigee: 1,420.1 km
Apogee: 1,471.7 km
Inclination: 74.0 °
Period: 114.6 minutes
Semi major axis: 7816 km
RCS: 0.7012 m2 (medium)
Launch date: December 23, 1980
Source: Commonwealth of Independent States (former USSR) (CIS)
Launch site: PLESETSK MISSILE AND SPACE COMPLEX (PKMTR)
aabbcc
Your satellite tracking list
Your tracking list is empty




NASA's NSSDC Master Catalog

Two Line Element Set (TLE):
1 12114U 80102H   18110.40673889 -.00000012 +00000-0 +25395-4 0  9998
2 12114 073.9929 081.9086 0032997 297.6474 177.4813 12.56184754711408
Source of the keplerian elements: AFSPC